Istanbul, Turkey

3:24 AM +03 on December 05, 2016 (GMT +0300)
Ataturk

Weather History for LTBA - July, 2013

Change the Weather History Date:

Saturday, July 6, 2013

  Actual Average Record
Temperature  
Mean Temperature 77 °F -  
Max Temperature 84 °F 82 °F 93 °F (1997)
Min Temperature 70 °F 68 °F 60 °F (2005)
Cooling Degree Days 12    
Growing Degree Days 27 (Base 50)    
Moisture  
Dew Point 63 °F    
Average Humidity 62    
Maximum Humidity 78    
Minimum Humidity 33    
Precipitation  
Precipitation 0.00 in - - ()
Sea Level Pressure  
Sea Level Pressure 29.90 in    
Wind  
Wind Speed 12 mph ()    
Max Wind Speed 23 mph    
Max Gust Speed 37 mph    
Visibility 6.2 miles    
Events      
Averages and records for this station are not official NWS values.
T = Trace of Precipitation, MM = Missing Value Source: Averaged Metar Reports

Daily Weather History Graph

Daily Weather History Graph

Search for Another Location

Airport or City:

Trip Planner

Search our weather history database for the weather conditions in past years. The results will help you decide how hot, cold, wet, or windy it might be!

Date:

Astronomy

Jul. 06, 2013 Rise Set
Actual Time 5:39 AM EEST 8:39 PM EEST
Civil Twilight 5:06 AM EEST 9:12 PM EEST
Nautical Twilight 4:23 AM EEST 9:54 PM EEST
Astronomical Twilight 3:34 AM EEST 10:44 PM EEST
Moon 4:09 AM EEST (7/6) 7:05 PM EEST (7/6)
Length of Visible Light 16h 06m
Length of Day
15h 00m
Waning Crescent, 3% of the Moon is Illuminated
Jul 6
Waning Crescent
Jul 8
New
Jul 16
First Quarter
Jul 22
Full
Jul 29
Last Quarter

Hourly Weather History & Observations

Time (EEST) Temp. Heat Index Dew Point Humidity Pressure Visibility Wind Dir Wind Speed Gust Speed Precip Events Conditions
12:20 AM 71.6 °F - 64.4 °F 78% 29.92 in - North 11.5 mph - N/A   Clear
12:50 AM 71.6 °F - 64.4 °F 78% 29.92 in - NNE 9.2 mph - N/A   Clear
1:20 AM 73.4 °F - 64.4 °F 73% 29.92 in - North 9.2 mph - N/A   Clear
1:50 AM 73.4 °F - 64.4 °F 73% 29.89 in - NNE 9.2 mph - N/A   Clear
2:20 AM 71.6 °F - 64.4 °F 78% 29.89 in - North 10.4 mph - N/A   Clear
2:50 AM 71.6 °F - 64.4 °F 78% 29.89 in - North 9.2 mph - N/A   Clear
3:00 AM 72 °F - 64 °F 69% 29.90 in 6 mi North 9.2 mph - -  
3:20 AM 71.6 °F - 64.4 °F 78% 29.89 in - North 10.4 mph - N/A   Clear
3:50 AM 71.6 °F - 64.4 °F 78% 29.89 in - North 11.5 mph - N/A   Clear
4:20 AM 71.6 °F - 64.4 °F 78% 29.89 in - North 9.2 mph - N/A   Clear
4:50 AM 71.6 °F - 64.4 °F 78% 29.89 in - NNE 10.4 mph - N/A   Clear
5:20 AM 71.6 °F - 64.4 °F 78% 29.89 in - NNE 10.4 mph - N/A   Clear
5:50 AM 71.6 °F - 64.4 °F 78% 29.89 in - NNE 8.1 mph - N/A   Clear
6:20 AM 71.6 °F - 64.4 °F 78% 29.89 in - NNE 6.9 mph - N/A   Clear
6:50 AM 73.4 °F - 66.2 °F 78% 29.92 in 6.2 mi NNE 8.1 mph - N/A   Partly Cloudy
7:20 AM 73.4 °F - 64.4 °F 73% 29.92 in 6.2 mi NNE 9.2 mph - N/A   Partly Cloudy
7:50 AM 75.2 °F - 66.2 °F 73% 29.92 in 6.2 mi NE 10.4 mph - N/A   Partly Cloudy
8:20 AM 75.2 °F - 64.4 °F 69% 29.92 in 6.2 mi NNE 13.8 mph - N/A   Scattered Clouds
8:50 AM 78.8 °F - 64.4 °F 61% 29.92 in 6.2 mi NNE 10.4 mph - N/A   Scattered Clouds
9:00 AM 78 °F - 62 °F 49% 29.91 in 6 mi NNE 10.4 mph - -   Partly Cloudy
9:20 AM 78.8 °F - 62.6 °F 57% 29.89 in 6.2 mi NNE 12.7 mph - N/A   Scattered Clouds
9:50 AM 78.8 °F - 62.6 °F 57% 29.92 in 6.2 mi NNE 15.0 mph - N/A   Scattered Clouds
10:20 AM 80.6 °F 81.8 °F 62.6 °F 54% 29.92 in 6.2 mi NE 13.8 mph - N/A   Scattered Clouds
10:50 AM 78.8 °F - 60.8 °F 54% 29.92 in 6.2 mi NNE 16.1 mph - N/A   Scattered Clouds
11:20 AM 82.4 °F 83.4 °F 62.6 °F 51% 29.92 in 6.2 mi NE 16.1 mph - N/A   Scattered Clouds
11:50 AM 80.6 °F 81.8 °F 62.6 °F 54% 29.92 in 6.2 mi NE 18.4 mph - N/A   Scattered Clouds
12:20 PM 80.6 °F 82.3 °F 64.4 °F 58% 29.92 in 6.2 mi NNE 17.3 mph - N/A   Scattered Clouds
12:50 PM 80.6 °F 82.3 °F 64.4 °F 58% 29.92 in 6.2 mi NNE 18.4 mph - N/A   Scattered Clouds
1:20 PM 80.6 °F 81.8 °F 62.6 °F 54% 29.92 in 6.2 mi NNE 18.4 mph 31.1 mph N/A   Scattered Clouds
1:50 PM 80.6 °F 81.8 °F 62.6 °F 54% 29.92 in 6.2 mi NE 20.7 mph - N/A   Scattered Clouds
2:20 PM 82.4 °F 82.9 °F 60.8 °F 48% 29.92 in 6.2 mi NE 19.6 mph - N/A   Scattered Clouds
2:50 PM 82.4 °F 82.5 °F 59.0 °F 45% 29.89 in 6.2 mi NE 20.7 mph - N/A   Scattered Clouds
3:00 PM 83 °F - 59 °F 33% 29.90 in 6 mi NE 20.7 mph - -   Partly Cloudy
3:20 PM 84.2 °F 84.4 °F 60.8 °F 45% 29.89 in 6.2 mi NE 21.9 mph - N/A   Scattered Clouds
3:50 PM 82.4 °F 82.9 °F 60.8 °F 48% 29.89 in 6.2 mi NE 20.7 mph - N/A   Partly Cloudy
4:20 PM 84.2 °F 83.8 °F 59.0 °F 42% 29.89 in 6.2 mi NE 20.7 mph - N/A   Scattered Clouds
4:50 PM 82.4 °F 82.5 °F 59.0 °F 45% 29.89 in 6.2 mi NE 21.9 mph - N/A   Partly Cloudy
5:20 PM 82.4 °F 82.0 °F 57.2 °F 42% 29.86 in 6.2 mi NE 23.0 mph - N/A   Partly Cloudy
5:50 PM 82.4 °F 82.0 °F 57.2 °F 42% 29.86 in 6.2 mi NE 21.9 mph 36.8 mph N/A   Partly Cloudy
6:20 PM 80.6 °F 80.8 °F 57.2 °F 45% 29.86 in 6.2 mi NNE 19.6 mph 31.1 mph N/A   Partly Cloudy
6:50 PM 80.6 °F 81.1 °F 59.0 °F 48% 29.86 in - NE 18.4 mph - N/A   Clear
7:20 PM 78.8 °F - 60.8 °F 54% 29.89 in - NE 17.3 mph - N/A   Clear
7:50 PM 78.8 °F - 62.6 °F 57% 29.89 in - NE 17.3 mph - N/A   Clear
8:20 PM 77.0 °F - 62.6 °F 61% 29.89 in - NNE 13.8 mph - N/A   Clear
8:50 PM 77.0 °F - 64.4 °F 65% 29.89 in - NNE 15.0 mph - N/A   Clear
9:00 PM 76 °F - 63 °F 56% 29.90 in 6 mi NNE 15.0 mph - -  
9:20 PM 77.0 °F - 64.4 °F 65% 29.89 in - NNE 13.8 mph - N/A   Clear
9:50 PM 75.2 °F - 64.4 °F 69% 29.92 in - NNE 13.8 mph - N/A   Clear
10:20 PM 75.2 °F - 66.2 °F 73% 29.92 in - NNE 11.5 mph - N/A   Clear
10:50 PM 75.2 °F - 66.2 °F 73% 29.92 in - NNE 13.8 mph - N/A   Clear
11:20 PM 75.2 °F - 66.2 °F 73% 29.92 in - NNE 13.8 mph - N/A   Clear
11:50 PM 75.2 °F - 66.2 °F 73% 29.92 in - NNE 13.8 mph - N/A   Clear